Regional Weather Roundup
Issued by NWS

Home | Current Version | Previous Version | Text Only | Print | Product List | Glossary Off
Versions: 1 2 3 4 5 6 7 8 9 10 11 12 13 14 15 16 17 18 19 20 21 22 23 24 25 26 27 28 29 30 31 32 33 34 35 36 37 38 39 40 41 42 43 44 45 46 47 48 49 50

483
ASUS45 KBOI 271010
RWRID

IDAHO REGIONAL WEATHER ROUNDUP
NATIONAL WEATHER SERVICE BOISE ID
300 AM MST MON FEB 27 2017

NOTE: "FAIR" INDICATES FEW OR NO CLOUDS BELOW 12000 FEET
WITH NO SIGNIFICANT WEATHER AND/OR OBSTRUCTIONS TO VISIBILITY

IDZ012-014-271100-
SOUTHWEST IDAHO


CITY           SKY/WX    TMP DP  RH WIND       PRES   REMARKS
BOISE          CLOUDY    30  23  75 SW10      29.65R WCI  21
CALDWELL       CLOUDY    31  27  85 SE8       29.67F WCI  23
MOUNTAIN HOME  MOCLDY    27  27 100 E14       29.64F WCI  16
$$

IDZ016-017-271100-
SOUTHCENTRAL IDAHO


CITY           SKY/WX    TMP DP  RH WIND       PRES   REMARKS
BURLEY         CLOUDY    30  23  75 SW5       29.61F WCI  25
JEROME           N/A    N/A N/A N/A MISG      29.63F
TWIN FALLS     MOCLDY    26  20  77 S13       29.62F WCI  15
$$

IDZ019>023-271100-
SOUTHEAST IDAHO


CITY           SKY/WX    TMP DP  RH WIND       PRES   REMARKS
IDAHO FALLS    CLOUDY    21  21 100 W5        29.61F WCI  15
POCATELLO      CLOUDY    25  22  88 W9        29.63S WCI  15
REXBURG        CLOUDY    23  22  96 W6        29.60F WCI  16
$$

IDZ006-010-011-018-031-032-271100-
CENTRAL IDAHO MOUNTAINS


CITY           SKY/WX    TMP DP  RH WIND       PRES   REMARKS
MCCALL         LGT SNOW  22  18  85 CALM      29.51F FOG
HAILEY         PTCLDY    10   7  85 NW6       29.62F WCI   1
STANLEY          N/A      5   0  79 S5        29.53F WCI  -4
SALMON         CLOUDY    23  18  80 CALM      29.60F
CHALLIS        CLEAR     12   7  80 SE3       29.58F
$$

IDZ002-004-006-007-026-271100-
NORTHERN IDAHO


CITY           SKY/WX    TMP DP  RH WIND       PRES   REMARKS
LEWISTON       LGT SNOW  32  30  92 CALM      29.67S VSB 1
LOWELL           N/A     33  30  88 CALM      29.68F
COEUR D`ALENE  LGT SNOW  28  27  96 CALM      29.64F FOG
MULLAN PASS    LGT SNOW  16  15  96 CALM      29.46S VSB 1
$$




USA.gov is the U.S. government's official web portal to all federal, state and local government web resources and services.